Regional Weather Roundup
Issued by NWS Little Rock, AR

Home | Current Version | Previous Version | Graphics & Text | Print | Product List | Glossary On
Versions: 1 2 3 4 5 6 7 8 9 10 11 12 13 14 15 16 17 18 19 20 21 22 23 24 25 26 27 28 29 30 31 32 33 34 35 36 37 38 39 40 41 42 43 44 45 46 47 48 49 50
000
ASUS44 KLZK 060605
RWRLZK

WEATHER ROUNDUP FOR ARKANSAS
NATIONAL WEATHER SERVICE LITTLE ROCK AR
1200 AM CST FRI MAR 06 2015

NOTE: "FAIR" INDICATES FEW OR NO CLOUDS BELOW 12,000 FEET WITH NO
SIGNIFICANT WEATHER AND/OR OBSTRUCTIONS TO VISIBILITY.

ARZ001-003-010-029-060700-
NORTHWEST ARKANSAS

CITY           SKY/WX    TMP DP  RH WIND       PRES   REMARKS
FAYETTEVILLE   CLEAR     20  17  88 CALM      30.52F
6HR MIN TEMP:  20; 6HR MAX TEMP:  34;

FORT SMITH     CLEAR     28  22  78 CALM      30.57F
6HR MIN TEMP:  27; 6HR MAX TEMP:  39;

HARRISON       CLEAR     20  12  71 S3        30.51F
6HR MIN TEMP:  19; 6HR MAX TEMP:  30;

BENTONVILLE    CLEAR     25  12  58 SE5       30.51F WCI  19
6HR MIN TEMP:  25; 6HR MAX TEMP:  36;

ROGERS         CLEAR     25  15  66 SE7       30.51F WCI  17
6HR MIN TEMP:  24; 6HR MAX TEMP:  32;

SILOAM SPGS    CLEAR     27  10  50 SE3       30.52F
6HR MIN TEMP:  25; 6HR MAX TEMP:  34;

HIGHFILL       CLEAR     25  13  60 S3        30.51F
6HR MIN TEMP:  25; 6HR MAX TEMP:  35;

$$

ARZ004-005-016-060700-
NORTH CENTRAL ARKANSAS

CITY           SKY/WX    TMP DP  RH WIND       PRES   REMARKS
BATESVILLE     CLEAR     18  12  79 CALM      30.59F
6HR MIN TEMP:  18; 6HR MAX TEMP:  34;

FLIPPIN        CLEAR     18  10  73 CALM      30.54F
6HR MIN TEMP:  18; 6HR MAX TEMP:  32;

MTN HOME       CLEAR     22   8  55 SW3       30.53F
6HR MIN TEMP:  20; 6HR MAX TEMP:  30;

$$

ARZ040-041-060700-
WEST CENTRAL ARKANSAS

CITY           SKY/WX    TMP DP  RH WIND       PRES   REMARKS
MENA           CLEAR     25  23  93 CALM      30.55S
MOUNT IDA      CLEAR     24  20  84 CALM      30.54S
6HR MIN TEMP:  24; 6HR MAX TEMP:  38;

$$

ARZ009-017-025-026-028-060700-
NORTHEAST ARKANSAS

CITY           SKY/WX    TMP DP  RH WIND       PRES   REMARKS
CORNING        FAIR      16  12  86 NE5       30.62F WCI   9
JONESBORO      PTCLDY    12   9  87 NE3       30.60F
6HR MIN TEMP:  10; 6HR MAX TEMP:  22;

NEWPORT        PTCLDY    16  13  88 CALM      30.61F
6HR MIN TEMP:  16; 6HR MAX TEMP:  29;

WALNUT RIDGE   PTCLDY    14  10  85 CALM      30.60F
6HR MIN TEMP:  12; 6HR MAX TEMP:  27;

BLYTHEVILLE    PTCLDY     6   4  91 N5        30.61F WCI  -3
6HR MIN TEMP:   6; 6HR MAX TEMP:  19;

$$

ARZ022-023-033-042-044-060700-
CENTRAL ARKANSAS

CITY           SKY/WX    TMP DP  RH WIND       PRES   REMARKS
LITTLE ROCK    CLEAR     21  17  84 S3        30.61R
6HR MIN TEMP:  21; 6HR MAX TEMP:  35;

N LITTLE ROCK  CLEAR     27  13  55 N5        30.61R WCI  22
6HR MIN TEMP:  27; 6HR MAX TEMP:  34;

JACKSONVILLE   CLEAR     19  15  85 NE1       30.59S
6HR MIN TEMP:  18; 6HR MAX TEMP:  35;

SEARCY         CLEAR     20  15  81 NE6       30.61F WCI  12
6HR MIN TEMP:  20; 6HR MAX TEMP:  32; 6HR PCP:  0.01;

HOT SPRINGS    CLEAR     25  21  85 CALM      30.58S
6HR MIN TEMP:  25; 6HR MAX TEMP:  38;

RUSSELLVILLE   CLEAR     24  19  81 CALM      30.58F
6HR MIN TEMP:  24; 6HR MAX TEMP:  38;

CLINTON        FAIR      18  16  93 CALM      30.60S
$$

ARZ036-060700-
EAST ARKANSAS

CITY           SKY/WX    TMP DP  RH WIND       PRES   REMARKS
WEST MEMPHIS   PTCLDY    14  12  92 N3        30.59F
6HR MIN TEMP:  14; 6HR MAX TEMP:  25;

$$

ARZ050-053-066-070-073-060700-
SOUTHWEST ARKANSAS

CITY           SKY/WX    TMP DP  RH WIND       PRES   REMARKS
ARKADELPHIA    FAIR      26  26 100 CALM      30.61S
6HR MIN TEMP:  26; 6HR MAX TEMP:  38;

CAMDEN         CLEAR     23  19  86 CALM      30.60F
TEXARKANA      CLEAR     27  24  89 CALM      30.58F
6HR MIN TEMP:  26; 6HR MAX TEMP:  38;

EL DORADO      CLEAR     24  20  84 CALM      30.59F
6HR MIN TEMP:  23; 6HR MAX TEMP:  36;

DE QUEEN       CLEAR     26  23  88 CALM      30.58F FOG
6HR MIN TEMP:  26; 6HR MAX TEMP:  39;

$$

ARZ056-057-069-060700-
SOUTHEAST ARKANSAS

CITY           SKY/WX    TMP DP  RH WIND       PRES   REMARKS
PINE BLUFF     CLEAR     21  17  84 CALM      30.61R
6HR MIN TEMP:  21; 6HR MAX TEMP:  31;

STUTTGART      CLEAR     25  16  68 E3        30.61R
6HR MIN TEMP:  23; 6HR MAX TEMP:  30;

MONTICELLO     CLEAR     23  20  88 CALM      30.59S
6HR MIN TEMP:  23; 6HR MAX TEMP:  34;


$$





USA.gov is the U.S. government's official web portal to all federal, state and local government web resources and services.